Previsão horária em Jutrosin

Hoje, 18 Junho, Sexta-feira

Tempo Temperatura Precipitação Vento Pressão Humidade
00:00 +20°C° 0 mm 4 m/s 750 mmHg 79%
01:00 +19°C° 0 mm 4 m/s 750 mmHg 79%
02:00 +19°C° 0 mm 4 m/s 750 mmHg 79%
03:00 +19°C° 0 mm 4 m/s 750 mmHg 79%
04:00 +18°C° 0 mm 4 m/s 750 mmHg 79%
05:00 +20°C° 0 mm 4 m/s 750 mmHg 74%
06:00 +22°C° 0 mm 4 m/s 750 mmHg 68%
07:00 +23°C° 0 mm 5 m/s 750 mmHg 61%
08:00 +26°C° 0 mm 4 m/s 750 mmHg 55%
09:00 +28°C° 0 mm 4 m/s 750 mmHg 50%
10:00 +30°C° 0 mm 4 m/s 750 mmHg 44%
11:00 +32°C° 0 mm 4 m/s 750 mmHg 41%
12:00 +32°C° 0 mm 4 m/s 750 mmHg 38%
13:00 +33°C° 0 mm 4 m/s 750 mmHg 35%
14:00 +33°C° 0 mm 4 m/s 749 mmHg 36%
15:00 +33°C° 0 mm 4 m/s 749 mmHg 37%
16:00 +33°C° 0 mm 4 m/s 749 mmHg 38%
17:00 +30°C° 0 mm 4 m/s 749 mmHg 43%
18:00 +28°C° 0 mm 4 m/s 749 mmHg 49%
19:00 +27°C° 0 mm 4 m/s 749 mmHg 54%
20:00 +25°C° 0 mm 4 m/s 749 mmHg 57%
21:00 +23°C° 0 mm 4 m/s 749 mmHg 59%
22:00 +22°C° 0 mm 3 m/s 749 mmHg 62%
23:00 +21°C° 0 mm 3 m/s 749 mmHg 65%

Amanhã, 19 Junho, Sábado

Tempo Temperatura Precipitação Vento Pressão Humidade
00:00 +21°C° 0 mm 3 m/s 749 mmHg 68%
01:00 +21°C° 0 mm 3 m/s 749 mmHg 71%
02:00 +20°C° 0 mm 3 m/s 749 mmHg 74%
03:00 +20°C° 0 mm 3 m/s 749 mmHg 77%
04:00 +19°C° 0 mm 3 m/s 749 mmHg 79%
05:00 +21°C° 0 mm 4 m/s 749 mmHg 75%
06:00 +23°C° 0 mm 4 m/s 749 mmHg 70%
07:00 +25°C° 0 mm 4 m/s 749 mmHg 65%
08:00 +27°C° 0 mm 4 m/s 749 mmHg 59%
09:00 +29°C° 0 mm 4 m/s 749 mmHg 53%
10:00 +30°C° 0 mm 5 m/s 749 mmHg 47%
11:00 +32°C° 0 mm 4 m/s 748 mmHg 44%
12:00 +33°C° 0 mm 4 m/s 748 mmHg 40%
13:00 +34°C° 0 mm 4 m/s 748 mmHg 37%
14:00 +34°C° 0 mm 4 m/s 748 mmHg 37%
15:00 +34°C° 0 mm 3 m/s 748 mmHg 36%
16:00 +34°C° 0 mm 3 m/s 747 mmHg 36%
17:00 +31°C° 0 mm 3 m/s 748 mmHg 43%
18:00 +30°C° 0 mm 3 m/s 748 mmHg 49%
19:00 +28°C° 0 mm 3 m/s 748 mmHg 56%
20:00 +26°C° 0 mm 2 m/s 748 mmHg 63%
21:00 +24°C° 0 mm 2 m/s 748 mmHg 70%
22:00 +21°C° 0 mm 2 m/s 748 mmHg 76%
23:00 +21°C° 0.1 mm 2 m/s 748 mmHg 77%

Depois de amanhã, 20 Junho, Domingo

Tempo Temperatura Precipitação Vento Pressão Humidade
00:00 +21°C° 0.1 mm 2 m/s 748 mmHg 78%
01:00 +22°C° 0.1 mm 1 m/s 748 mmHg 80%
02:00 +20°C° 0 mm 2 m/s 747 mmHg 81%
03:00 +20°C° 0 mm 2 m/s 747 mmHg 83%
04:00 +20°C° 0 mm 2 m/s 747 mmHg 85%
05:00 +22°C° 0 mm 3 m/s 747 mmHg 80%
06:00 +24°C° 0 mm 3 m/s 747 mmHg 74%
07:00 +26°C° 0 mm 4 m/s 747 mmHg 69%
08:00 +27°C° 0 mm 4 m/s 747 mmHg 62%
09:00 +29°C° 0 mm 5 m/s 747 mmHg 55%
10:00 +30°C° 0 mm 5 m/s 746 mmHg 49%
11:00 +32°C° 0 mm 5 m/s 746 mmHg 45%
12:00 +33°C° 0 mm 5 m/s 746 mmHg 42%
13:00 +33°C° 0 mm 5 m/s 746 mmHg 39%
14:00 +33°C° 0 mm 5 m/s 745 mmHg 39%
15:00 +33°C° 0 mm 5 m/s 745 mmHg 39%
16:00 +33°C° 0 mm 5 m/s 745 mmHg 39%
17:00 +32°C° 0 mm 5 m/s 745 mmHg 45%
18:00 +29°C° 0 mm 5 m/s 744 mmHg 50%
19:00 +28°C° 0 mm 4 m/s 744 mmHg 56%
20:00 +27°C° 0 mm 4 m/s 744 mmHg 60%
21:00 +25°C° 0 mm 4 m/s 744 mmHg 65%
22:00 +23°C° 0 mm 4 m/s 744 mmHg 70%
23:00 +22°C° 0 mm 4 m/s 744 mmHg 72%

21 Junho, Segunda-feira

Tempo Temperatura Precipitação Vento Pressão Humidade
00:00 +22°C° 0 mm 4 m/s 744 mmHg 75%
01:00 +21°C° 0 mm 4 m/s 743 mmHg 77%
02:00 +21°C° 0 mm 4 m/s 743 mmHg 80%
03:00 +20°C° 0 mm 4 m/s 743 mmHg 82%
04:00 +20°C° 0 mm 4 m/s 742 mmHg 85%
05:00 +21°C° 0 mm 5 m/s 742 mmHg 79%
06:00 +23°C° 0 mm 5 m/s 742 mmHg 73%
07:00 +25°C° 0 mm 5 m/s 742 mmHg 67%
08:00 +27°C° 0 mm 6 m/s 742 mmHg 61%
09:00 +29°C° 0 mm 6 m/s 742 mmHg 56%
10:00 +30°C° 0 mm 6 m/s 742 mmHg 50%
11:00 +32°C° 0 mm 6 m/s 742 mmHg 48%
12:00 +32°C° 0 mm 6 m/s 742 mmHg 47%
13:00 +33°C° 0 mm 5 m/s 741 mmHg 46%
14:00 +32°C° 0.3 mm 5 m/s 741 mmHg 50%
15:00 +30°C° 0.3 mm 4 m/s 741 mmHg 55%
16:00 +29°C° 0.3 mm 4 m/s 741 mmHg 59%
17:00 +26°C° 6.9 mm 4 m/s 741 mmHg 71%
18:00 +22°C° 6.9 mm 3 m/s 742 mmHg 82%
19:00 +19°C° 6.9 mm 3 m/s 742 mmHg 94%
20:00 +19°C° 0.9 mm 3 m/s 743 mmHg 94%
21:00 +19°C° 0.9 mm 2 m/s 743 mmHg 95%
22:00 +20°C° 0.9 mm 1 m/s 744 mmHg 95%
23:00 +19°C° 0 mm 1 m/s 744 mmHg 95%

22 Junho, Terça-feira

Tempo Temperatura Precipitação Vento Pressão Humidade
00:00 +17°C° 0 mm 2 m/s 744 mmHg 96%
01:00 +16°C° 0 mm 2 m/s 744 mmHg 96%
02:00 +16°C° 0 mm 2 m/s 744 mmHg 97%
03:00 +16°C° 0 mm 2 m/s 744 mmHg 97%
04:00 +15°C° 0 mm 2 m/s 744 mmHg 97%
05:00 +16°C° 0 mm 2 m/s 745 mmHg 93%
06:00 +17°C° 0 mm 2 m/s 745 mmHg 88%
07:00 +19°C° 0 mm 3 m/s 745 mmHg 84%
08:00 +20°C° 0 mm 3 m/s 746 mmHg 76%
09:00 +21°C° 0 mm 3 m/s 746 mmHg 68%
10:00 +24°C° 0 mm 2 m/s 746 mmHg 60%
11:00 +25°C° 0 mm 3 m/s 746 mmHg 57%
12:00 +26°C° 0 mm 3 m/s 746 mmHg 53%
13:00 +27°C° 0 mm 3 m/s 746 mmHg 50%
14:00 +26°C° 0 mm 3 m/s 747 mmHg 51%
15:00 +26°C° 0 mm 3 m/s 747 mmHg 52%
16:00 +26°C° 0 mm 3 m/s 747 mmHg 53%
17:00 +24°C° 0 mm 3 m/s 747 mmHg 60%
18:00 +21°C° 0 mm 4 m/s 747 mmHg 66%
19:00 +20°C° 0 mm 4 m/s 748 mmHg 73%
20:00 +18°C° 0 mm 3 m/s 748 mmHg 78%
21:00 +17°C° 0 mm 3 m/s 748 mmHg 83%
22:00 +16°C° 0 mm 2 m/s 748 mmHg 88%
23:00 +16°C° 0 mm 2 m/s 748 mmHg 87%

23 Junho, Quarta-feira

Tempo Temperatura Precipitação Vento Pressão Humidade
00:00 +16°C° 0 mm 2 m/s 749 mmHg 87%
01:00 +16°C° 0 mm 2 m/s 749 mmHg 86%
02:00 +16°C° 0.1 mm 2 m/s 749 mmHg 86%
03:00 +16°C° 0.1 mm 2 m/s 749 mmHg 86%
04:00 +16°C° 0.1 mm 2 m/s 749 mmHg 86%
05:00 +16°C° 0.5 mm 2 m/s 749 mmHg 89%
06:00 +16°C° 0.5 mm 2 m/s 750 mmHg 92%
07:00 +16°C° 0.5 mm 2 m/s 750 mmHg 95%
08:00 +14°C° 0.9 mm 3 m/s 750 mmHg 95%
09:00 +14°C° 0.9 mm 3 m/s 751 mmHg 95%
10:00 +14°C° 0.9 mm 3 m/s 751 mmHg 95%
11:00 +16°C° 0.6 mm 3 m/s 751 mmHg 94%
12:00 +15°C° 0.6 mm 4 m/s 751 mmHg 92%
13:00 +15°C° 0.6 mm 4 m/s 751 mmHg 91%
14:00 +15°C° 0 mm 4 m/s 751 mmHg 90%
15:00 +17°C° 0 mm 4 m/s 751 mmHg 89%
16:00 +17°C° 0 mm 4 m/s 751 mmHg 88%
17:00 +17°C° 0 mm 4 m/s 751 mmHg 88%
18:00 +15°C° 0 mm 4 m/s 751 mmHg 88%
19:00 +15°C° 0 mm 4 m/s 751 mmHg 88%
20:00 +15°C° 0 mm 4 m/s 750 mmHg 88%
21:00 +14°C° 0 mm 4 m/s 750 mmHg 89%
22:00 +14°C° 0 mm 4 m/s 750 mmHg 89%
23:00 +13°C° 0 mm 3 m/s 750 mmHg 89%
Mostrar mais

Necessitamos do seu Consentimento

A Meteoprog e os seus Fornecedores de Serviços podem armazenar e aceder a dados pessoais como cookies, identificadores do dispositivo ou outras tecnologias semelhantes existentes no seu dispositivo e processar estes dados para personalizar conteúdos e anúncios, assim como funcionalidades nas redes sociais e análise de tráfego.

  • Armazenar e/ou aceder a informações no seu dispositivo

    Os cookies, identificadores do dispositivo ou outras informações podem ser armazenados ou acedidos no seu dispositivo, para os fins acima indicados.

  • Anúncios e conteúdos personalizados, medição de anúncios e conteúdos, dados sobre o público-alvo e desenvolvimento de produtos

    Os anúncios e os conteúdos podem ser personalizados com base num perfil. Podem ser adicionados dados adicionais para uma maior personalização dos anúncios e dos conteúdos. A eficácia dos anúncios e dos conteúdos pode ser medida. Podem ser obtidas informações sobre o público que visualizou os anúncios e os conteúdos. Estes dados podem ser usados para desenvolver ou melhorar sistemas, softwares ou a experiência do utilizador.

Ao clicar em "Eu concordo”, permitirá o uso de cookies, identificadores do dispositivo e web beacons mencionados ou outras tecnologias semelhantes. As configurações do navegador do seu dispositivo podem ser alteradas.

Para certos fins, podem ser invocados interesses legítimos ao invés de consentimento. Pode ler mais informação sobre este assunto na nossa Política de Privacidade e Cookies.